When you browse on this site, cookies collect data to enhance your experience and personalize the content and advertising you see.
Visit our Privacy Policy to learn more. By continuing to use the site, you agree to this use of cookies and data.
  • In Hungary
  • List of Countries
  • For 7 days
  • Water Temperature
  • Satellite Maps
  • Weather Map
  • News
  • Weather Widgets
  • user-avatar
    Login

    Hourly Weather Bastia

    Today, 15 December, Saturday

    Time Temperature Precipitation Wind Pressure Humidity
    00:00 +2°C° 0.1 mm 3 mps 741 mmHg 89%
    01:00 +3°C° 0 mm 2 mps 741 mmHg 90%
    02:00 +3°C° 0 mm 2 mps 741 mmHg 89%
    03:00 +1°C° 0 mm 3 mps 741 mmHg 89%
    04:00 +1°C° 0 mm 3 mps 741 mmHg 89%
    05:00 +1°C° 0 mm 3 mps 741 mmHg 88%
    06:00 +1°C° 0 mm 3 mps 742 mmHg 88%
    07:00 +1°C° 0 mm 3 mps 742 mmHg 87%
    08:00 0°C° 0 mm 4 mps 742 mmHg 83%
    09:00 +1°C° 0 mm 4 mps 742 mmHg 78%
    10:00 +2°C° 0 mm 5 mps 743 mmHg 74%
    11:00 +3°C° 0 mm 5 mps 743 mmHg 71%
    12:00 +3°C° 0 mm 5 mps 743 mmHg 68%
    13:00 +3°C° 0 mm 5 mps 743 mmHg 65%
    14:00 +3°C° 0 mm 5 mps 744 mmHg 67%
    15:00 +3°C° 0 mm 4 mps 744 mmHg 69%
    16:00 +3°C° 0 mm 3 mps 744 mmHg 71%
    17:00 +2°C° 0 mm 3 mps 745 mmHg 74%
    18:00 +1°C° 0 mm 3 mps 745 mmHg 78%
    19:00 +1°C° 0 mm 2 mps 745 mmHg 82%
    20:00 +1°C° 0 mm 2 mps 745 mmHg 82%
    21:00 +1°C° 0 mm 2 mps 745 mmHg 82%
    22:00 +1°C° 0 mm 2 mps 746 mmHg 83%
    23:00 +1°C° 0 mm 2 mps 746 mmHg 83%

    Tomorrow, 16 December, Sunday

    Time Temperature Precipitation Wind Pressure Humidity
    00:00 +2°C° 0 mm 1 mps 746 mmHg 83%
    01:00 +2°C° 0 mm 1 mps 746 mmHg 83%
    02:00 +2°C° 0 mm 1 mps 746 mmHg 82%
    03:00 +2°C° 0 mm 1 mps 745 mmHg 81%
    04:00 +2°C° 0 mm 1 mps 745 mmHg 80%
    05:00 +2°C° 0 mm 1 mps 745 mmHg 78%
    06:00 +2°C° 0 mm 1 mps 745 mmHg 76%
    07:00 +2°C° 0 mm 1 mps 746 mmHg 74%
    08:00 +3°C° 0 mm 1 mps 746 mmHg 68%
    09:00 +5°C° 0 mm 1 mps 746 mmHg 63%
    10:00 +6°C° 0 mm 1 mps 746 mmHg 57%
    11:00 +7°C° 0 mm 1 mps 746 mmHg 52%
    12:00 +8°C° 0 mm 1 mps 746 mmHg 48%
    13:00 +9°C° 0 mm 1 mps 746 mmHg 44%
    14:00 +9°C° 0 mm 1 mps 746 mmHg 49%
    15:00 +8°C° 0 mm 1 mps 745 mmHg 54%
    16:00 +7°C° 0 mm 1 mps 745 mmHg 58%
    17:00 +7°C° 0.1 mm 1 mps 745 mmHg 60%
    18:00 +6°C° 0.1 mm 1 mps 745 mmHg 62%
    19:00 +5°C° 0.1 mm 2 mps 745 mmHg 63%
    20:00 +6°C° 0.9 mm 1 mps 744 mmHg 69%
    21:00 +6°C° 0.9 mm 1 mps 744 mmHg 74%
    22:00 +6°C° 0.9 mm 1 mps 743 mmHg 80%
    23:00 +6°C° 2.8 mm 1 mps 743 mmHg 84%

    Day after tomorrow, 17 December, Monday

    Time Temperature Precipitation Wind Pressure Humidity
    00:00 +6°C° 2.8 mm 1 mps 742 mmHg 88%
    01:00 +5°C° 2.8 mm 2 mps 741 mmHg 92%
    02:00 +5°C° 3.3 mm 2 mps 741 mmHg 93%
    03:00 +5°C° 3.3 mm 2 mps 741 mmHg 93%
    04:00 +5°C° 3.3 mm 2 mps 740 mmHg 94%
    05:00 +5°C° 0.9 mm 2 mps 740 mmHg 94%
    06:00 +5°C° 0.9 mm 2 mps 740 mmHg 94%
    07:00 +5°C° 0.9 mm 2 mps 741 mmHg 93%
    08:00 +5°C° 0.8 mm 2 mps 741 mmHg 92%
    09:00 +5°C° 0.8 mm 3 mps 741 mmHg 91%
    10:00 +5°C° 0.8 mm 3 mps 742 mmHg 90%
    11:00 +5°C° 0.3 mm 3 mps 742 mmHg 89%
    12:00 +7°C° 0.3 mm 3 mps 742 mmHg 88%
    13:00 +6°C° 0.3 mm 4 mps 742 mmHg 86%
    14:00 +6°C° 0.4 mm 4 mps 742 mmHg 86%
    15:00 +5°C° 0.4 mm 4 mps 743 mmHg 87%
    16:00 +5°C° 0.4 mm 4 mps 743 mmHg 87%
    17:00 +4°C° 0.3 mm 4 mps 744 mmHg 87%
    18:00 +4°C° 0.3 mm 4 mps 744 mmHg 88%
    19:00 +4°C° 0.3 mm 4 mps 745 mmHg 88%
    20:00 +3°C° 0.1 mm 5 mps 746 mmHg 87%
    21:00 +3°C° 0.1 mm 5 mps 746 mmHg 86%
    22:00 +3°C° 0.1 mm 5 mps 747 mmHg 84%
    23:00 +3°C° 0 mm 5 mps 747 mmHg 84%

    18 December, Tuesday

    Time Temperature Precipitation Wind Pressure Humidity
    00:00 +3°C° 0 mm 5 mps 748 mmHg 85%
    01:00 +4°C° 0 mm 4 mps 748 mmHg 85%
    02:00 +4°C° 0 mm 4 mps 749 mmHg 85%
    03:00 +3°C° 0 mm 4 mps 749 mmHg 86%
    04:00 +3°C° 0 mm 4 mps 749 mmHg 87%
    05:00 +3°C° 0 mm 4 mps 750 mmHg 88%
    06:00 +3°C° 0 mm 3 mps 750 mmHg 89%
    07:00 +3°C° 0 mm 3 mps 750 mmHg 90%
    08:00 +4°C° 0 mm 3 mps 751 mmHg 87%
    09:00 +4°C° 0 mm 3 mps 751 mmHg 85%
    10:00 +5°C° 0 mm 3 mps 752 mmHg 83%
    11:00 +7°C° 0 mm 3 mps 752 mmHg 80%
    12:00 +8°C° 0 mm 3 mps 751 mmHg 78%
    13:00 +8°C° 0 mm 3 mps 751 mmHg 75%
    14:00 +8°C° 0 mm 2 mps 751 mmHg 78%
    15:00 +7°C° 0 mm 2 mps 751 mmHg 80%
    16:00 +7°C° 0 mm 2 mps 751 mmHg 82%
    17:00 +7°C° 0 mm 1 mps 751 mmHg 83%
    18:00 +6°C° 0 mm 1 mps 751 mmHg 84%
    19:00 +5°C° 0 mm 1 mps 751 mmHg 86%
    20:00 +5°C° 0 mm 1 mps 751 mmHg 84%
    21:00 +5°C° 0 mm 1 mps 751 mmHg 82%
    22:00 +5°C° 0 mm 1 mps 751 mmHg 80%
    23:00 +4°C° 0 mm 1 mps 750 mmHg 78%

    19 December, Wednesday

    Time Temperature Precipitation Wind Pressure Humidity
    00:00 +4°C° 0 mm 1 mps 750 mmHg 76%
    01:00 +4°C° 0 mm 1 mps 750 mmHg 74%
    02:00 +4°C° 0 mm 1 mps 750 mmHg 73%
    03:00 +4°C° 0 mm 1 mps 750 mmHg 71%
    04:00 +4°C° 0 mm 1 mps 749 mmHg 70%
    05:00 +4°C° 0 mm 1 mps 749 mmHg 69%
    06:00 +4°C° 0 mm 1 mps 749 mmHg 68%
    07:00 +4°C° 0 mm 1 mps 749 mmHg 67%
    08:00 +5°C° 0 mm 1 mps 750 mmHg 64%
    09:00 +6°C° 0 mm 0 mps 750 mmHg 62%
    10:00 +7°C° 0 mm 0 mps 750 mmHg 60%
    11:00 +8°C° 0 mm 0 mps 750 mmHg 61%
    12:00 +9°C° 0 mm 0 mps 749 mmHg 61%
    13:00 +10°C° 0 mm 0 mps 749 mmHg 61%
    14:00 +9°C° 0 mm 0 mps 749 mmHg 64%
    15:00 +8°C° 0 mm 0 mps 749 mmHg 66%
    16:00 +8°C° 0 mm 0 mps 749 mmHg 69%
    17:00 +7°C° 0 mm 0 mps 748 mmHg 69%
    18:00 +7°C° 0 mm 1 mps 748 mmHg 70%
    19:00 +6°C° 0 mm 1 mps 748 mmHg 70%
    20:00 +6°C° 0 mm 1 mps 748 mmHg 69%
    21:00 +6°C° 0 mm 1 mps 748 mmHg 68%
    22:00 +6°C° 0 mm 1 mps 748 mmHg 67%
    23:00 +6°C° 0 mm 1 mps 748 mmHg 65%

    20 December, Thursday

    Time Temperature Precipitation Wind Pressure Humidity
    00:00 +6°C° 0 mm 1 mps 748 mmHg 63%
    01:00 +6°C° 0 mm 1 mps 747 mmHg 62%
    02:00 +6°C° 0 mm 1 mps 747 mmHg 61%
    03:00 +6°C° 0 mm 1 mps 746 mmHg 60%
    04:00 +5°C° 0 mm 2 mps 746 mmHg 59%
    05:00 +5°C° 0 mm 2 mps 746 mmHg 59%
    06:00 +5°C° 0 mm 2 mps 745 mmHg 59%
    07:00 +6°C° 0 mm 2 mps 745 mmHg 59%
    08:00 +6°C° 0.9 mm 2 mps 745 mmHg 64%
    09:00 +6°C° 0.9 mm 2 mps 744 mmHg 68%
    10:00 +7°C° 0.9 mm 2 mps 744 mmHg 73%
    11:00 +7°C° 1.7 mm 2 mps 744 mmHg 77%
    12:00 +7°C° 1.7 mm 2 mps 743 mmHg 82%
    13:00 +7°C° 1.7 mm 2 mps 743 mmHg 87%
    14:00 +7°C° 0.5 mm 2 mps 743 mmHg 88%
    15:00 +7°C° 0.5 mm 2 mps 743 mmHg 89%
    16:00 +7°C° 0.5 mm 2 mps 743 mmHg 89%
    17:00 +7°C° 0.1 mm 2 mps 743 mmHg 91%
    18:00 +7°C° 0.1 mm 2 mps 743 mmHg 92%
    19:00 +6°C° 0.1 mm 2 mps 743 mmHg 94%
    20:00 +6°C° 0.1 mm 2 mps 743 mmHg 94%
    21:00 +6°C° 0.1 mm 2 mps 744 mmHg 95%
    22:00 +6°C° 0.1 mm 2 mps 744 mmHg 95%
    23:00 +7°C° 0.2 mm 1 mps 745 mmHg 95%
    Show more